Flag for U.S.A. Weather past 2 weeks in Independence, Missouri, U.S.A.

Now
62 °F

Partly sunny.


Feels Like: 62 °F
Forecast: 50 / 66 °F
Wind: 18 mph from Northwest

Location: Lee's Summit Municipal Airport

Current Time: Apr 19, 2015 at 6:16:44 PM

Latest Report: Apr 19, 2015 at 4:53 PM


Visibility: 10 mi

Pressure: 29.61 "Hg

Humidity: 70%

Dew point: 52 °F

Location of IndependenceLocation

Historic Weather in Independence — Graph

°F

Independence temperature yesterday

Maximum temperature yesterday: 64 °F (at 12:53 AM)
Minimum temperature yesterday: 58 °F (at 11:53 PM)
Average temperature yesterday: 62 °F

Past Weeks' High & Low Weather Summary

 TemperatureHumidityPressure
High82 °F (Apr 7, 3:53 PM)100% (Apr 8, 4:53 AM)30.25 "Hg (Apr 8, 4:53 AM)
Low39 °F (Apr 10, 4:53 AM)22% (Apr 4, 5:53 PM)29.55 "Hg (Apr 9, 6:53 AM)
Average60 °F67%29.96 "Hg
* Reported Apr 4 4:53 PM — Apr 19 4:53 PM, Independence, Weather by CustomWeather, © 2015

Note: Actual official high and low records may vary slightly from our data, if they occured in-between our weather recording intervals... More about our weather records

Advertising

Independence weather history for previous 24 hours

 ConditionsComfort  
Time TempWeatherWind HumidityBarometerVisibility
4:53 PM
Sun, Apr 19
62 °FPartly sunny.18 mph70%29.61 "Hg10 mi
3:53 PM61 °FThundershowers. Mostly cloudy.15 mph75%29.60 "Hg10 mi
2:53 PM67 °FBroken clouds.12 mph59%29.61 "Hg10 mi
1:53 PM67 °FBroken clouds.10 mph61%29.63 "Hg10 mi
12:53 PM66 °FSunny.12 mph63%29.65 "Hg10 mi
11:53 AM64 °FSunny.12 mph70%29.68 "Hg10 mi
10:53 AM62 °FSunny.10 mph78%29.68 "Hg10 mi
10:02 AM59 °FBroken clouds.10 mph84%29.70 "Hg10 mi
9:53 AM58 °FMostly cloudy.10 mph87%29.69 "Hg10 mi
8:53 AM56 °FLow clouds.7 mph93%29.69 "Hg10 mi
8:04 AM55 °FLow clouds.9 mph96%29.70 "Hg7 mi
7:53 AM55 °FFog.8 mph96%29.69 "Hg4 mi
6:53 AM55 °FLow clouds.5 mph93%29.68 "Hg9 mi
5:53 AM54 °FPassing clouds.3 mph97%29.70 "Hg10 mi
4:58 AM56 °FStrong thunderstorms. Fog.10 mph93%29.74 "Hg2 mi
4:01 AM59 °FFog.No wind96%29.74 "Hg1 mi
2:53 AM59 °FFog.No wind96%29.75 "Hg1 mi
1:53 AM58 °FFog.No wind100%29.78 "Hg4 mi
12:53 AM59 °FMostly cloudy.7 mph96%29.79 "Hg8 mi
11:53 PM
Sat, Apr 18
58 °FOvercast.No wind97%29.80 "Hg10 mi
10:53 PM59 °FMostly cloudy.5 mph93%29.81 "Hg10 mi
9:53 PM60 °FPassing clouds.No wind93%29.83 "Hg10 mi
8:53 PM61 °FOvercast.5 mph90%29.83 "Hg10 mi
7:53 PM62 °FPassing clouds.6 mph86%29.83 "Hg10 mi
6:53 PM63 °FMore clouds than sun.6 mph84%29.84 "Hg10 mi
Weather by CustomWeather, © 2015

See weather overviewHow to use our weather pages